Location: Unspecified
(0.0000°N, 0.0000°E)
Time: 21:28:44

Hubble Space Telescope - Pass Details

Date: 19 January 2018
Orbit: 537 x 541 km, 28.5° (Epoch: 21 March)

Event Time Altitude Azimuth Distance (km) Brightness Sun altitude
Exits shadow 04:32:38 33° 22° (NNE) 905 1.8 -22.9°
Maximum altitude 04:32:53 34° 30° (NNE) 900 1.9 -22.8°
Drops below altitude 10° 04:36:39 10° 95° (E) 1,787 4.5 -22.0°
Sets 04:39:03 0° 105° (ESE) 2,679 5.8 -21.4°
